This is the latest recevied weather packets stored in our database for station/object AE0NK. If no packets are shown the sender has not sent any weather packets the latest 10 day(s).
| Time | Temp. | Humidity | Pressure | Rain* | Wind** | Luminosity | Snow |
|---|---|---|---|---|---|---|---|
| 1777850305 | 23.33° C | 24% | 1005.8 hPa | 0 mm | - | 54 W/m² | - |
| 1777850005 | 23.33° C | 25% | 1005.8 hPa | 0 mm | - | 58 W/m² | - |
| 1777849702 | 23.33° C | 25% | 1005.7 hPa | 0 mm | - | 241 W/m² | - |
| 1777849400 | 23.33° C | 25% | 1005.7 hPa | 0 mm | - | 309 W/m² | - |
| 1777849095 | 23.33° C | 25% | 1005.8 hPa | 0 mm | - | 325 W/m² | - |
| 1777848793 | 23.89° C | 25% | 1005.9 hPa | 0 mm | - | 339 W/m² | - |
| 1777848493 | 23.89° C | 25% | 1005.9 hPa | 0 mm | - | 355 W/m² | - |
| 1777848192 | 23.89° C | 27% | 1005.9 hPa | 0 mm | - | 364 W/m² | - |
| 1777847909 | 23.89° C | 25% | 1005.9 hPa | 0 mm | - | 248 W/m² | - |
| 1777847607 | 23.89° C | 25% | 1005.8 hPa | 0 mm | - | 214 W/m² | - |
| 1777847307 | 23.89° C | 27% | 1005.7 hPa | 0 mm | - | 207 W/m² | - |
| 1777847003 | 23.89° C | 27% | 1005.7 hPa | 0 mm | - | 209 W/m² | - |
| 1777846701 | 23.89° C | 25% | 1005.7 hPa | 0 mm | - | 295 W/m² | - |
| 1777846400 | 23.89° C | 26% | 1005.6 hPa | 0 mm | - | 431 W/m² | - |
| 1777846096 | 24.44° C | 28% | 1005.5 hPa | 0 mm | - | 274 W/m² | - |
| 1777845794 | 24.44° C | 26% | 1005.6 hPa | 0 mm | - | 165 W/m² | - |
| 1777845510 | 24.44° C | 26% | 1005.6 hPa | 0 mm | - | 274 W/m² | - |
| 1777845208 | 24.44° C | 26% | 1005.6 hPa | 0 mm | - | 527 W/m² | - |
| 1777844906 | 24.44° C | 31% | 1005.7 hPa | 0 mm | - | 541 W/m² | - |
| 1777844605 | 24.44° C | 27% | 1005.7 hPa | 0 mm | - | 554 W/m² | - |
| 1777844304 | 24.44° C | 29% | 1005.6 hPa | 0 mm | - | 570 W/m² | - |
| 1777844003 | 24.44° C | 32% | 1005.6 hPa | 0 mm | - | 584 W/m² | - |
| 1777843701 | 23.89° C | 37% | 1005.7 hPa | 0 mm | - | 594 W/m² | - |
| 1777843399 | 23.89° C | 38% | 1005.7 hPa | 0 mm | - | 612 W/m² | - |
| 1777843096 | 23.89° C | 39% | 1005.8 hPa | 0 mm | - | 619 W/m² | - |
* Rain latest hour (hover to see other rain measurements)
** Current wind speed in m/s (hover to see current wind gust speed)